FW7688 Weather Reports


time (UTC)temp
C
wind
direction
speed
KPH
gust
KPH
rain 1hr
cm
rain 24hr
cm
rain mn
cm
humidity
%
barometer
mb
20260905221521 20 241 0.0 1.6 0.00 0.00 0.00 80 1012.3
20260905220021 20 205 0.0 0.0 0.00 0.00 0.00 80 1012.4
20260905214520 20 205 0.0 1.6 0.00 0.00 0.00 79 1012.2
20260905213020 20 257 0.0 0.0 0.00 0.00 0.00 80 1012.0
20260905211520 21 257 0.0 1.6 0.00 0.00 0.00 79 1012.0
20260905210019 21 257 0.0 1.6 0.00 0.00 0.00 76 1011.8
20260905204524 21 259 0.0 3.2 0.00 0.00 0.00 77 1011.6
20260905203019 22 79 0.0 0.0 0.00 0.00 0.00 76 1011.6
20260905201517 22 230 0.0 1.6 0.00 0.00 0.00 74 1011.6
20260905200026 22 166 0.0 1.6 0.00 0.00 0.00 72 1011.6
20260905194515 22 120 0.0 4.8 0.00 0.00 0.00 74 1011.5
20260905193014 22 214 0.0 3.2 0.00 0.00 0.00 73 1011.4
20260905191513 22 89 0.0 3.2 0.00 0.00 0.00 71 1011.5
20260905190013 22 94 0.0 3.2 0.00 0.00 0.00 70 1011.6
20260905184535 23 121 0.0 1.6 0.00 0.00 0.00 70 1011.7
20260905183025 23 234 0.0 4.8 0.00 0.00 0.00 69 1011.7
20260905181504 23 249 0.0 3.2 0.00 0.00 0.00 73 1011.8
20260905180001 22 98 0.0 3.2 0.00 0.00 0.00 75 1011.8
20260905174600 22 222 0.0 4.8 0.00 0.00 0.00 72 1012.0
20260905173106 22 356 0.0 4.8 0.00 0.00 0.00 77 1012.1
20260905171603 22 288 0.0 6.4 0.00 0.00 0.00 76 1012.3
20260905170053 21 277 0.0 3.2 0.00 0.00 0.00 76 1012.3
20260905164552 21 141 0.0 4.8 0.00 0.00 0.00 76 1012.3
20260905163053 21 274 0.0 3.2 0.00 0.00 0.00 79 1012.3
20260905161550 20 250 0.0 3.2 0.00 0.00 0.00 81 1012.2
20260905160051 20 217 0.0 0.0 0.00 0.00 0.00 81 1012.3
20260905154610 21 229 0.0 1.6 0.00 0.00 0.00 80 1012.2
20260905153048 21 224 0.0 6.4 0.00 0.00 0.00 81 1012.2
20260905151545 21 267 0.0 3.2 0.00 0.00 0.00 81 1012.3
20260905150044 20 55 0.0 6.4 0.00 0.00 0.00 82 1012.3
20260905144543 20 118 0.0 8.0 0.00 0.00 0.00 82 1012.2
20260905143041 20 270 0.0 4.8 0.00 0.00 0.00 84 1012.2
20260905141541 20 214 0.0 6.4 0.00 0.00 0.00 87 1012.0
20260905140045 19 248 0.0 4.8 0.00 0.00 0.00 86 1012.1
20260905134540 19 228 0.0 1.6 0.00 0.00 0.00 89 1012.2
20260905133045 18 277 0.0 1.6 0.00 0.00 0.00 88 1012.2
20260905131543 18 185 0.0 1.6 0.00 0.00 0.00 87 1012.5
20260905130044 19 269 0.0 1.6 0.00 0.00 0.00 86 1012.6
20260905124538 20 254 0.0 1.6 0.00 0.00 0.00 83 1012.6
20260905123033 19 189 0.0 1.6 0.00 0.00 0.00 88 1012.7
20260905121530 18 187 0.0 0.0 0.00 0.00 0.00 93 1012.5
20260905120026 17 187 0.0 0.0 0.00 0.00 0.00 98 1012.5
20260905114523 16 188 0.0 0.0 0.00 0.00 0.00 98 1012.3
20260905113021 15 187 0.0 0.0 0.00 0.00 0.00 98 1012.0
20260905111530 14 188 0.0 0.0 0.00 0.00 0.00 97 1011.9
20260905110034 14 187 0.0 0.0 0.00 0.00 0.00 97 1011.9
20260905104524 14 187 0.0 0.0 0.00 0.00 0.00 97 1011.6
20260905103019 14 187 0.0 0.0 0.00 0.00 0.00 97 1011.3
20260905101518 14 187 0.0 0.0 0.00 0.00 0.00 97 1011.3
20260905100017 14 187 0.0 0.0 0.00 0.00 0.00 97 1011.2
20260905094516 14 187 0.0 0.0 0.00 0.00 0.00 97 1011.3
20260905093016 14 187 0.0 0.0 0.00 0.00 0.00 97 1011.3
20260905091516 14 188 0.0 0.0 0.00 0.00 0.00 96 1011.3
20260905090018 14 187 0.0 0.0 0.00 0.56 0.00 96 1011.2
20260905084512 14 188 0.0 0.0 0.00 0.56 0.00 96 1011.2
20260905083011 14 188 0.0 0.0 0.00 0.56 0.00 96 1011.2
20260905081510 15 188 0.0 0.0 0.00 0.56 0.00 96 1011.1
20260905080008 15 188 0.0 0.0 0.00 1.63 0.00 95 1011.2
20260905074507 15 188 0.0 0.0 0.00 1.63 0.00 95 1011.2
20260905073005 15 188 0.0 0.0 0.00 1.63 0.00 95 1011.3
20260905071504 15 188 0.0 0.0 0.00 1.63 0.00 94 1011.3
20260905070004 15 188 0.0 0.0 0.00 1.73 0.00 94 1011.4
20260905064606 16 188 0.0 0.0 0.00 1.73 0.00 94 1011.5
20260905063100 16 189 0.0 0.0 0.00 1.73 0.00 94 1011.7
20260905061601 16 189 0.0 0.0 0.00 1.73 0.00 95 1011.7
20260905060058 16 176 0.0 0.0 0.00 1.73 0.00 96 1011.8
20260905054555 15 176 0.0 0.0 0.00 1.73 0.00 96 1012.0
20260905053100 16 176 0.0 0.0 0.00 1.73 0.00 96 1012.2
20260905051552 15 176 0.0 0.0 0.00 1.73 0.00 95 1012.3
20260905050052 16 176 0.0 0.0 0.00 1.73 0.00 95 1012.4
20260905044549 16 176 0.0 0.0 0.00 1.73 0.00 95 1012.4
20260905043055 16 176 0.0 0.0 0.00 1.73 0.00 96 1012.5
20260905041546 16 176 0.0 0.0 0.00 1.73 0.00 96 1012.4
20260905040043 16 176 0.0 0.0 0.00 1.73 0.00 96 1012.5
20260905034553 16 176 0.0 0.0 0.00 1.73 1.73 96 1012.6
20260905033108 16 176 0.0 0.0 0.00 1.73 1.73 96 1012.6
20260905031552 16 176 0.0 0.0 0.00 1.73 1.73 97 1012.4
20260905030052 16 176 0.0 0.0 0.00 1.73 1.73 96 1012.4
20260905024538 17 176 0.0 0.0 0.00 1.73 1.73 96 1012.4
20260905023041 17 148 0.0 0.0 0.00 1.73 1.73 96 1012.3
20260905021536 17 148 0.0 0.0 0.00 1.73 1.73 96 1012.2
20260905020039 17 148 0.0 0.0 0.00 1.73 1.73 96 1012.2
20260905014533 17 148 0.0 0.0 0.00 1.73 1.73 96 1012.1
20260905013036 17 148 0.0 0.0 0.00 1.73 1.73 96 1012.5
20260905011536 17 148 0.0 0.0 0.00 1.73 1.73 95 1012.3
20260905010029 18 148 0.0 0.0 0.00 1.73 1.73 95 1012.3
20260905004529 18 148 0.0 0.0 0.00 1.73 1.73 95 1012.3
20260905003027 18 148 0.0 0.0 0.00 1.73 1.73 94 1012.4
20260905001526 18 148 0.0 0.0 0.00 1.73 1.73 93 1012.2
20260905000023 18 148 0.0 0.0 0.00 1.73 1.73 92 1012.0
20260904234521 19 148 0.0 0.0 0.00 1.73 1.73 91 1011.9
20260904233021 19 148 0.0 0.0 0.00 1.73 1.73 89 1011.8
20260904231522 20 148 0.0 0.0 0.00 1.73 1.73 89 1011.8
20260904230030 20 148 0.0 0.0 0.00 1.73 1.73 88 1011.9
20260904224521 21 148 0.0 0.0 0.00 1.73 1.73 87 1011.8
20260904223018 21 148 0.0 0.0 0.00 1.73 1.73 85 1011.8